10-11-2022, 00:00:00,    257,    2.5,    8.1,   0.00,   0.00, 1011.4,   78.0, -999.0
10-11-2022, 00:00:10,    206,    1.5,    8.1,   0.00,   0.00, 1011.3,   77.9, -999.0
10-11-2022, 00:00:20,    210,    2.6,    8.1,   0.00,   0.00, 1011.4,   77.9, -999.0
10-11-2022, 00:00:30,    200,    1.2,    8.1,   0.00,   0.00, 1011.3,   77.8, -999.0
10-11-2022, 00:00:40,    203,    1.3,    8.1,   0.00,   0.00, 1011.3,   77.8, -999.0
10-11-2022, 00:00:50,    209,    1.9,    8.1,   0.00,   0.00, 1011.3,   77.7, -999.0
10-11-2022, 00:01:00,    193,    0.9,    8.0,   0.00,   0.00, 1011.3,   77.8, -999.0
10-11-2022, 00:01:10,    177,    1.6,    8.0,   0.00,   0.00, 1011.3,   77.7, -999.0
10-11-2022, 00:01:20,    210,    2.5,    8.0,   0.00,   0.00, 1011.3,   77.9, -999.0
10-11-2022, 00:01:30,    190,    2.0,    8.0,   0.00,   0.00, 1011.3,   77.9, -999.0
10-11-2022, 00:01:40,    182,    2.3,    8.1,   0.00,   0.00, 1011.3,   77.8, -999.0
10-11-2022, 00:01:50,    205,    1.5,    8.0,   0.00,   0.00, 1011.3,   78.0, -999.0
10-11-2022, 00:02:00,    204,    0.5,    7.9,   0.00,   0.00, 1011.3,   77.8, -999.0
10-11-2022, 00:02:10,    181,    1.5,    8.0,   0.00,   0.00, 1011.3,   77.9, -999.0
10-11-2022, 00:02:20,    229,    2.2,    8.0,   0.00,   0.00, 1011.3,   77.9, -999.0
10-11-2022, 00:02:30,    201,    1.4,    8.0,   0.00,   0.00, 1011.4,   78.0, -999.0
10-11-2022, 00:02:39,    206,    1.2,    8.1,   0.00,   0.00, 1011.3,   78.0, -999.0
10-11-2022, 00:02:50,    205,    0.0,    7.9,   0.00,   0.00, 1011.3,   77.6, -999.0
10-11-2022, 00:03:00,    193,    0.6,    7.9,   0.00,   0.00, 1011.3,   77.8, -999.0
10-11-2022, 00:03:09,    223,    1.1,    8.0,   0.00,   0.00, 1011.4,   77.9, -999.0
10-11-2022, 00:03:19,    196,    3.0,    7.9,   0.00,   0.00, 1011.4,   78.0, -999.0
10-11-2022, 00:03:30,    210,    2.9,    8.0,   0.00,   0.00, 1011.4,   77.9, -999.0
10-11-2022, 00:03:39,    210,    2.2,    8.0,   0.00,   0.00, 1011.4,   78.0, -999.0
10-11-2022, 00:03:49,    207,    0.5,    7.9,   0.00,   0.00, 1011.3,   78.0, -999.0
10-11-2022, 00:03:59,    226,    0.2,    7.9,   0.00,   0.00, 1011.3,   77.8, -999.0
10-11-2022, 00:04:09,    169,    1.2,    7.9,   0.00,   0.00, 1011.3,   78.1, -999.0
10-11-2022, 00:04:19,    218,    1.7,    8.0,   0.00,   0.00, 1011.3,   78.1, -999.0
10-11-2022, 00:04:29,    178,    2.5,    7.9,   0.00,   0.00, 1011.3,   78.1, -999.0
10-11-2022, 00:04:39,    201,    1.9,    8.0,   0.00,   0.00, 1011.3,   78.2, -999.0
10-11-2022, 00:04:49,    234,    2.1,    8.0,   0.00,   0.00, 1011.4,   78.2, -999.0
10-11-2022, 00:04:59,    195,    3.0,    8.0,   0.00,   0.00, 1011.4,   78.2, -999.0
10-11-2022, 00:05:09,    197,    1.3,    7.9,   0.00,   0.00, 1011.3,   78.2, -999.0
10-11-2022, 00:05:19,    214,    1.7,    7.9,   0.00,   0.00, 1011.3,   78.2, -999.0
10-11-2022, 00:05:29,    202,    0.7,    7.9,   0.00,   0.00, 1011.3,   78.2, -999.0
10-11-2022, 00:05:39,    205,    1.6,    8.0,   0.00,   0.00, 1011.3,   78.2, -999.0
10-11-2022, 00:05:49,    205,    0.1,    7.9,   0.00,   0.00, 1011.2,   77.9, -999.0
10-11-2022, 00:05:59,    186,    0.9,    7.9,   0.00,   0.00, 1011.3,   78.1, -999.0
10-11-2022, 00:06:09,    203,    0.9,    8.0,   0.00,   0.00, 1011.3,   78.1, -999.0
10-11-2022, 00:06:19,    208,    0.8,    7.8,   0.00,   0.00, 1011.4,   78.1, -999.0
10-11-2022, 00:06:29,    213,    2.5,    7.9,   0.00,   0.00, 1011.3,   78.1, -999.0
10-11-2022, 00:06:39,    173,    3.0,    8.0,   0.00,   0.00, 1011.3,   78.2, -999.0
10-11-2022, 00:06:49,    174,    2.1,    8.0,   0.00,   0.00, 1011.3,   78.2, -999.0
10-11-2022, 00:06:59,    188,    1.5,    7.9,   0.00,   0.00, 1011.4,   78.2, -999.0
10-11-2022, 00:07:08,    192,    1.0,    7.9,   0.00,   0.00, 1011.3,   78.1, -999.0
10-11-2022, 00:07:19,    189,    0.8,    7.9,   0.00,   0.00, 1011.3,   78.1, -999.0
10-11-2022, 00:07:29,    211,    1.2,    7.9,   0.00,   0.00, 1011.3,   78.1, -999.0
10-11-2022, 00:07:38,    211,    0.2,    7.8,   0.00,   0.00, 1011.2,   78.0, -999.0
10-11-2022, 00:07:48,    211,    0.1,    7.8,   0.00,   0.00, 1011.2,   78.0, -999.0
10-11-2022, 00:07:59,    212,    0.6,    7.9,   0.00,   0.00, 1011.3,   78.1, -999.0
10-11-2022, 00:08:08,    209,    0.2,    7.9,   0.00,   0.00, 1011.3,   78.2, -999.0
10-11-2022, 00:08:18,    211,    0.5,    7.9,   0.00,   0.00, 1011.3,   78.3, -999.0
10-11-2022, 00:08:29,    161,    0.7,    7.9,   0.00,   0.00, 1011.3,   78.4, -999.0
10-11-2022, 00:08:38,    218,    2.7,    7.9,   0.00,   0.00, 1011.4,   78.4, -999.0
10-11-2022, 00:08:48,    201,    3.5,    8.0,   0.00,   0.00, 1011.4,   78.4, -999.0
10-11-2022, 00:08:58,    199,    2.1,    7.9,   0.00,   0.00, 1011.4,   78.3, -999.0
10-11-2022, 00:09:08,    195,    3.2,    8.0,   0.00,   0.00, 1011.4,   78.4, -999.0
10-11-2022, 00:09:18,    212,    1.6,    8.0,   0.00,   0.00, 1011.4,   78.2, -999.0
10-11-2022, 00:09:28,    211,    0.5,    8.0,   0.00,   0.00, 1011.3,   78.0, -999.0
10-11-2022, 00:09:38,    210,    0.1,    8.0,   0.00,   0.00, 1011.3,   77.8, -999.0
10-11-2022, 00:09:48,    210,    0.0,    7.9,   0.00,   0.00, 1011.2,   77.6, -999.0
10-11-2022, 00:09:58,    210,    0.0,    7.9,   0.00,   0.00, 1011.2,   77.5, -999.0
10-11-2022, 00:10:08,    211,    0.0,    7.9,   0.00,   0.00, 1011.2,   77.6, -999.0
10-11-2022, 00:10:18,    191,    0.4,    7.9,   0.00,   0.00, 1011.4,   77.8, -999.0
10-11-2022, 00:10:28,    190,    0.3,    8.0,   0.00,   0.00, 1011.3,   77.8, -999.0
10-11-2022, 00:10:38,    190,    0.2,    8.0,   0.00,   0.00, 1011.3,   77.8, -999.0
10-11-2022, 00:10:48,    133,    0.6,    8.0,   0.00,   0.00, 1011.3,   77.9, -999.0
10-11-2022, 00:10:57,    217,    1.7,    8.0,   0.00,   0.00, 1011.4,   77.9, -999.0
10-11-2022, 00:11:08,    195,    1.4,    8.0,   0.00,   0.00, 1011.3,   78.0, -999.0
10-11-2022, 00:11:18,    188,    0.9,    8.0,   0.00,   0.00, 1011.3,   77.8, -999.0
10-11-2022, 00:11:27,    204,    1.9,    8.0,   0.00,   0.00, 1011.4,   78.0, -999.0
10-11-2022, 00:11:38,    220,    2.5,    8.0,   0.00,   0.00, 1011.4,   78.0, -999.0
10-11-2022, 00:11:48,    208,    2.3,    8.0,   0.00,   0.00, 1011.4,   78.0, -999.0
10-11-2022, 00:11:57,    210,    1.2,    8.0,   0.00,   0.00, 1011.4,   77.9, -999.0
10-11-2022, 00:12:07,    202,    0.9,    8.0,   0.00,   0.00, 1011.4,   78.0, -999.0
10-11-2022, 00:12:18,    218,    2.7,    8.0,   0.00,   0.00, 1011.4,   78.0, -999.0
10-11-2022, 00:12:28,    214,    3.0,    8.0,   0.00,   0.00, 1011.4,   78.0, -999.0
10-11-2022, 00:12:37,    215,    0.6,    7.9,   0.00,   0.00, 1011.4,   77.8, -999.0
10-11-2022, 00:12:47,    205,    0.9,    7.9,   0.00,   0.00, 1011.4,   77.8, -999.0
10-11-2022, 00:12:58,    217,    1.0,    7.9,   0.00,   0.00, 1011.4,   77.8, -999.0
10-11-2022, 00:13:07,    216,    0.0,    7.9,   0.00,   0.00, 1011.4,   77.7, -999.0
10-11-2022, 00:13:17,    217,    0.1,    7.9,   0.00,   0.00, 1011.4,   77.8, -999.0
10-11-2022, 00:13:27,    214,    0.6,    7.9,   0.00,   0.00, 1011.4,   77.9, -999.0
10-11-2022, 00:13:37,    214,    2.7,    7.9,   0.00,   0.00, 1011.5,   78.1, -999.0
10-11-2022, 00:13:47,    176,    2.7,    7.9,   0.00,   0.00, 1011.5,   78.0, -999.0
10-11-2022, 00:13:57,    149,    1.0,    7.9,   0.00,   0.00, 1011.4,   77.9, -999.0
10-11-2022, 00:14:07,    208,    1.2,    7.9,   0.00,   0.00, 1011.5,   78.0, -999.0
10-11-2022, 00:14:17,    214,    2.7,    7.9,   0.00,   0.00, 1011.5,   78.0, -999.0
10-11-2022, 00:14:27,    198,    0.7,    8.0,   0.00,   0.00, 1011.5,   78.0, -999.0
10-11-2022, 00:14:37,    200,    0.7,    7.9,   0.00,   0.00, 1011.4,   78.0, -999.0
10-11-2022, 00:14:47,    200,    0.7,    7.9,   0.00,   0.00, 1011.5,   78.1, -999.0
10-11-2022, 00:14:57,    200,    0.0,    7.9,   0.00,   0.00, 1011.4,   77.8, -999.0
10-11-2022, 00:15:07,    234,    0.7,    7.8,   0.00,   0.00, 1011.5,   78.0, -999.0
10-11-2022, 00:15:17,    221,    0.6,    7.9,   0.00,   0.00, 1011.4,   78.1, -999.0
10-11-2022, 00:15:27,    220,    0.1,    7.9,   0.00,   0.00, 1011.4,   78.0, -999.0
10-11-2022, 00:15:37,    218,    0.4,    7.9,   0.00,   0.00, 1011.5,   78.1, -999.0
10-11-2022, 00:15:47,    217,    0.1,    7.9,   0.00,   0.00, 1011.4,   77.9, -999.0
10-11-2022, 00:15:56,    167,    1.2,    7.9,   0.00,   0.00, 1011.5,   78.1, -999.0
10-11-2022, 00:16:07,    166,    0.3,    7.8,   0.00,   0.00, 1011.4,   78.0, -999.0
10-11-2022, 00:16:17,    188,    0.4,    7.8,   0.00,   0.00, 1011.4,   78.0, -999.0
10-11-2022, 00:16:26,    197,    1.8,    7.8,   0.00,   0.00, 1011.4,   78.2, -999.0
10-11-2022, 00:16:36,    197,    1.1,    7.8,   0.00,   0.00, 1011.5,   78.3, -999.0
10-11-2022, 00:16:47,    197,    0.3,    7.9,   0.00,   0.00, 1011.4,   78.1, -999.0
10-11-2022, 00:16:56,    197,    0.3,    7.9,   0.00,   0.00, 1011.4,   78.3, -999.0
10-11-2022, 00:17:06,    198,    0.2,    7.9,   0.00,   0.00, 1011.4,   78.2, -999.0
10-11-2022, 00:17:17,    216,    0.7,    7.8,   0.00,   0.00, 1011.4,   78.4, -999.0
10-11-2022, 00:17:26,    216,    0.0,    7.7,   0.00,   0.00, 1011.3,   78.0, -999.0
10-11-2022, 00:17:36,    216,    0.0,    7.7,   0.00,   0.00, 1011.3,   78.0, -999.0
10-11-2022, 00:17:46,    207,    0.4,    7.7,   0.00,   0.00, 1011.4,   78.1, -999.0
10-11-2022, 00:17:56,    188,    1.2,    7.8,   0.00,   0.00, 1011.5,   78.4, -999.0
10-11-2022, 00:18:06,    195,    0.7,    7.8,   0.00,   0.00, 1011.5,   78.4, -999.0
10-11-2022, 00:18:16,    196,    0.0,    7.8,   0.00,   0.00, 1011.4,   78.2, -999.0
10-11-2022, 00:18:26,    194,    0.9,    7.7,   0.00,   0.00, 1011.5,   78.5, -999.0
10-11-2022, 00:18:36,    194,    0.5,    7.7,   0.00,   0.00, 1011.5,   78.4, -999.0
10-11-2022, 00:18:46,    193,    0.0,    7.8,   0.00,   0.00, 1011.4,   78.3, -999.0
10-11-2022, 00:18:56,    193,    0.0,    7.7,   0.00,   0.00, 1011.4,   78.2, -999.0
10-11-2022, 00:19:06,    193,    0.0,    7.6,   0.00,   0.00, 1011.4,   78.3, -999.0
10-11-2022, 00:19:16,    193,    0.0,    7.7,   0.00,   0.00, 1011.4,   78.4, -999.0
10-11-2022, 00:19:26,    193,    0.0,    7.7,   0.00,   0.00, 1011.4,   78.5, -999.0
10-11-2022, 00:19:36,    193,    0.0,    7.7,   0.00,   0.00, 1011.5,   78.5, -999.0
10-11-2022, 00:19:46,    202,    0.2,    7.7,   0.00,   0.00, 1011.5,   78.5, -999.0
10-11-2022, 00:19:56,    200,    0.9,    7.8,   0.00,   0.00, 1011.5,   78.6, -999.0
10-11-2022, 00:20:06,    196,    0.6,    7.8,   0.00,   0.00, 1011.5,   78.6, -999.0
10-11-2022, 00:20:16,    195,    0.4,    7.8,   0.00,   0.00, 1011.5,   78.6, -999.0
10-11-2022, 00:20:25,    191,    0.9,    7.7,   0.00,   0.00, 1011.5,   78.5, -999.0
10-11-2022, 00:20:36,    200,    2.0,    7.8,   0.00,   0.00, 1011.5,   78.7, -999.0
10-11-2022, 00:20:46,    199,    0.4,    7.8,   0.00,   0.00, 1011.5,   78.6, -999.0
10-11-2022, 00:20:55,    199,    0.0,    7.7,   0.00,   0.00, 1011.4,   78.4, -999.0
10-11-2022, 00:21:06,    199,    0.0,    7.7,   0.00,   0.00, 1011.4,   78.3, -999.0
10-11-2022, 00:21:16,    199,    0.2,    7.8,   0.00,   0.00, 1011.5,   78.6, -999.0
10-11-2022, 00:21:25,    211,    0.3,    7.7,   0.00,   0.00, 1011.4,   78.5, -999.0
10-11-2022, 00:21:35,    208,    0.3,    7.8,   0.00,   0.00, 1011.5,   78.5, -999.0
10-11-2022, 00:21:46,    193,    0.2,    7.7,   0.00,   0.00, 1011.5,   78.6, -999.0
10-11-2022, 00:21:55,    192,    0.0,    7.7,   0.00,   0.00, 1011.4,   78.5, -999.0
10-11-2022, 00:22:05,    194,    0.1,    7.7,   0.00,   0.00, 1011.5,   78.6, -999.0
10-11-2022, 00:22:15,    194,    0.0,    7.8,   0.00,   0.00, 1011.4,   78.6, -999.0
10-11-2022, 00:22:25,    194,    0.0,    7.7,   0.00,   0.00, 1011.4,   78.5, -999.0
10-11-2022, 00:22:35,    240,    0.5,    7.7,   0.00,   0.00, 1011.5,   78.6, -999.0
10-11-2022, 00:22:45,    214,    0.2,    7.7,   0.00,   0.00, 1011.5,   78.7, -999.0
10-11-2022, 00:22:55,    214,    0.1,    7.7,   0.00,   0.00, 1011.5,   78.7, -999.0
10-11-2022, 00:23:05,    214,    0.1,    7.7,   0.00,   0.00, 1011.4,   78.6, -999.0
10-11-2022, 00:23:15,    204,    0.6,    7.7,   0.00,   0.00, 1011.5,   78.8, -999.0
10-11-2022, 00:23:25,    204,    0.1,    7.7,   0.00,   0.00, 1011.4,   78.5, -999.0
10-11-2022, 00:23:35,    203,    0.0,    7.8,   0.00,   0.00, 1011.4,   78.7, -999.0
10-11-2022, 00:23:45,    196,    0.4,    7.8,   0.00,   0.00, 1011.5,   78.7, -999.0
10-11-2022, 00:23:55,    196,    0.4,    7.8,   0.00,   0.00, 1011.5,   78.9, -999.0
10-11-2022, 00:24:05,    196,    0.0,    7.6,   0.00,   0.00, 1011.4,   78.5, -999.0
10-11-2022, 00:24:15,    188,    0.8,    7.8,   0.00,   0.00, 1011.5,   78.8, -999.0
10-11-2022, 00:24:25,    205,    2.1,    7.8,   0.00,   0.00, 1011.6,   78.7, -999.0
10-11-2022, 00:24:35,    190,    2.4,    7.8,   0.00,   0.00, 1011.6,   78.9, -999.0
10-11-2022, 00:24:45,    199,    1.1,    7.9,   0.00,   0.00, 1011.5,   78.9, -999.0
10-11-2022, 00:24:55,    202,    0.6,    7.9,   0.00,   0.00, 1011.5,   78.8, -999.0
10-11-2022, 00:25:05,    202,    0.0,    7.7,   0.00,   0.00, 1011.4,   78.4, -999.0
10-11-2022, 00:25:15,    205,    0.1,    7.7,   0.00,   0.00, 1011.5,   78.6, -999.0
10-11-2022, 00:25:24,    178,    1.8,    7.9,   0.00,   0.00, 1011.6,   78.7, -999.0
10-11-2022, 00:25:35,    190,    1.6,    7.9,   0.00,   0.00, 1011.6,   78.8, -999.0
10-11-2022, 00:25:45,    198,    1.5,    7.9,   0.00,   0.00, 1011.6,   78.7, -999.0
10-11-2022, 00:25:54,    198,    0.1,    7.8,   0.00,   0.00, 1011.5,   78.4, -999.0
10-11-2022, 00:26:04,    207,    2.3,    7.8,   0.00,   0.00, 1011.6,   78.7, -999.0
10-11-2022, 00:26:15,    199,    3.0,    7.9,   0.00,   0.00, 1011.6,   78.6, -999.0
10-11-2022, 00:26:24,    194,    1.7,    7.9,   0.00,   0.00, 1011.6,   78.6, -999.0
10-11-2022, 00:26:34,    194,    1.0,    7.9,   0.00,   0.00, 1011.6,   78.6, -999.0
10-11-2022, 00:26:45,    194,    0.0,    7.8,   0.00,   0.00, 1011.5,   78.3, -999.0
10-11-2022, 00:26:54,    193,    0.0,    7.8,   0.00,   0.00, 1011.5,   78.2, -999.0
10-11-2022, 00:27:04,    180,    0.6,    7.8,   0.00,   0.00, 1011.6,   78.4, -999.0
10-11-2022, 00:27:14,    196,    1.2,    7.9,   0.00,   0.00, 1011.6,   78.5, -999.0
10-11-2022, 00:27:24,    196,    0.4,    7.8,   0.00,   0.00, 1011.6,   78.5, -999.0
10-11-2022, 00:27:34,    196,    0.2,    7.8,   0.00,   0.00, 1011.6,   78.4, -999.0
10-11-2022, 00:27:44,    195,    0.2,    7.8,   0.00,   0.00, 1011.6,   78.3, -999.0
10-11-2022, 00:27:54,    245,    3.7,    7.9,   0.00,   0.00, 1011.6,   78.6, -999.0
10-11-2022, 00:28:04,    203,    3.5,    7.9,   0.00,   0.00, 1011.6,   78.6, -999.0
10-11-2022, 00:28:14,    192,    2.3,    7.9,   0.00,   0.00, 1011.7,   78.6, -999.0
10-11-2022, 00:28:24,    195,    0.8,    7.8,   0.00,   0.00, 1011.6,   78.5, -999.0
10-11-2022, 00:28:34,    208,    2.2,    7.8,   0.00,   0.00, 1011.7,   78.6, -999.0
10-11-2022, 00:28:44,    199,    0.6,    7.9,   0.00,   0.00, 1011.6,   78.6, -999.0
10-11-2022, 00:28:54,    217,    1.0,    7.9,   0.00,   0.00, 1011.6,   78.6, -999.0
10-11-2022, 00:29:04,    217,    0.1,    7.8,   0.00,   0.00, 1011.6,   78.4, -999.0
10-11-2022, 00:29:14,    194,    0.7,    7.8,   0.00,   0.00, 1011.7,   78.5, -999.0
10-11-2022, 00:29:24,    185,    1.6,    7.9,   0.00,   0.00, 1011.7,   78.6, -999.0
10-11-2022, 00:29:34,    185,    0.7,    7.8,   0.00,   0.00, 1011.7,   78.5, -999.0
10-11-2022, 00:29:44,    197,    0.6,    7.8,   0.00,   0.00, 1011.6,   78.4, -999.0
10-11-2022, 00:29:54,    198,    0.4,    7.9,   0.00,   0.00, 1011.6,   78.5, -999.0
10-11-2022, 00:30:04,    223,    2.0,    7.9,   0.00,   0.00, 1011.6,   78.5, -999.0
10-11-2022, 00:30:14,    213,    1.0,    7.8,   0.00,   0.00, 1011.7,   78.5, -999.0
10-11-2022, 00:30:23,    213,    0.0,    7.7,   0.00,   0.00, 1011.6,   78.2, -999.0
10-11-2022, 00:30:34,    212,    0.1,    7.8,   0.00,   0.00, 1011.6,   78.4, -999.0
10-11-2022, 00:30:44,    213,    0.6,    7.8,   0.00,   0.00, 1011.6,   78.4, -999.0
10-11-2022, 00:30:53,    204,    1.1,    7.8,   0.00,   0.00, 1011.7,   78.6, -999.0
10-11-2022, 00:31:03,    190,    3.5,    7.9,   0.00,   0.00, 1011.7,   78.6, -999.0
10-11-2022, 00:31:14,    189,    0.2,    7.8,   0.00,   0.00, 1011.6,   78.4, -999.0
10-11-2022, 00:31:23,    189,    0.0,    7.8,   0.00,   0.00, 1011.6,   78.3, -999.0
10-11-2022, 00:31:33,    191,    0.6,    7.9,   0.00,   0.00, 1011.6,   78.5, -999.0
10-11-2022, 00:31:43,    197,    1.1,    7.9,   0.00,   0.00, 1011.7,   78.5, -999.0
10-11-2022, 00:31:53,    196,    0.4,    7.9,   0.00,   0.00, 1011.7,   78.4, -999.0
10-11-2022, 00:32:03,    224,    2.0,    7.8,   0.00,   0.00, 1011.7,   78.5, -999.0
10-11-2022, 00:32:13,    209,    2.5,    8.0,   0.00,   0.00, 1011.7,   78.5, -999.0
10-11-2022, 00:32:23,    207,    0.4,    7.8,   0.00,   0.00, 1011.7,   78.5, -999.0
10-11-2022, 00:32:33,    191,    0.2,    7.8,   0.00,   0.00, 1011.6,   78.3, -999.0
10-11-2022, 00:32:43,    220,    0.6,    7.8,   0.00,   0.00, 1011.7,   78.4, -999.0
10-11-2022, 00:32:53,    207,    2.2,    7.9,   0.00,   0.00, 1011.7,   78.5, -999.0
10-11-2022, 00:33:03,    212,    2.0,    7.9,   0.00,   0.00, 1011.7,   78.5, -999.0
10-11-2022, 00:33:13,    213,    0.9,    7.9,   0.00,   0.00, 1011.7,   78.4, -999.0
10-11-2022, 00:33:23,    211,    0.4,    7.9,   0.00,   0.00, 1011.7,   78.4, -999.0
10-11-2022, 00:33:33,    212,    0.0,    7.8,   0.00,   0.00, 1011.6,   78.2, -999.0
10-11-2022, 00:33:43,    211,    0.0,    7.8,   0.00,   0.00, 1011.6,   78.4, -999.0
10-11-2022, 00:33:53,    212,    0.0,    7.8,   0.00,   0.00, 1011.6,   78.3, -999.0
10-11-2022, 00:34:03,    212,    0.3,    7.8,   0.00,   0.00, 1011.7,   78.6, -999.0
10-11-2022, 00:34:13,    212,    0.8,    7.8,   0.00,   0.00, 1011.7,   78.6, -999.0
10-11-2022, 00:34:23,    212,    1.1,    7.9,   0.00,   0.00, 1011.7,   78.6, -999.0
10-11-2022, 00:34:33,    214,    0.2,    7.8,   0.00,   0.00, 1011.6,   78.4, -999.0
10-11-2022, 00:34:42,    222,    1.5,    7.9,   0.00,   0.00, 1011.7,   78.7, -999.0
10-11-2022, 00:34:52,    205,    1.1,    7.9,   0.00,   0.00, 1011.7,   78.8, -999.0
10-11-2022, 00:35:03,    210,    1.8,    7.9,   0.00,   0.00, 1011.7,   78.7, -999.0
10-11-2022, 00:35:12,    209,    0.9,    7.9,   0.00,   0.00, 1011.7,   78.7, -999.0
10-11-2022, 00:35:22,    207,    1.3,    7.9,   0.00,   0.00, 1011.7,   78.6, -999.0
10-11-2022, 00:35:33,    219,    2.4,    7.9,   0.00,   0.00, 1011.7,   78.7, -999.0
10-11-2022, 00:35:42,    188,    2.1,    7.9,   0.00,   0.00, 1011.7,   78.8, -999.0
10-11-2022, 00:35:52,    182,    1.4,    7.9,   0.00,   0.00, 1011.7,   78.8, -999.0
10-11-2022, 00:36:02,    186,    0.6,    7.9,   0.00,   0.00, 1011.7,   78.8, -999.0
10-11-2022, 00:36:12,    179,    1.2,    7.8,   0.00,   0.00, 1011.7,   78.8, -999.0
10-11-2022, 00:36:22,    197,    1.3,    7.9,   0.00,   0.00, 1011.7,   78.7, -999.0
10-11-2022, 00:36:32,    197,    0.8,    7.9,   0.00,   0.00, 1011.7,   78.7, -999.0
10-11-2022, 00:36:42,    200,    0.4,    7.7,   0.00,   0.00, 1011.7,   78.6, -999.0
10-11-2022, 00:36:52,    188,    1.1,    7.9,   0.00,   0.00, 1011.7,   78.8, -999.0
10-11-2022, 00:37:02,    191,    1.6,    7.8,   0.00,   0.00, 1011.7,   78.7, -999.0
10-11-2022, 00:37:12,    204,    1.2,    7.9,   0.00,   0.00, 1011.7,   78.6, -999.0
10-11-2022, 00:37:22,    209,    1.2,    7.9,   0.00,   0.00, 1011.7,   78.8, -999.0
10-11-2022, 00:37:32,    208,    0.7,    7.8,   0.00,   0.00, 1011.6,   78.6, -999.0
10-11-2022, 00:37:42,    176,    0.3,    7.8,   0.00,   0.00, 1011.6,   78.6, -999.0
10-11-2022, 00:37:52,    216,    2.2,    7.9,   0.00,   0.00, 1011.7,   78.8, -999.0
10-11-2022, 00:38:02,    186,    1.0,    7.8,   0.00,   0.00, 1011.6,   78.8, -999.0
10-11-2022, 00:38:12,    189,    1.6,    7.9,   0.00,   0.00, 1011.6,   78.8, -999.0
10-11-2022, 00:38:22,    203,    1.6,    7.9,   0.00,   0.00, 1011.6,   78.8, -999.0
10-11-2022, 00:38:32,    202,    0.6,    7.9,   0.00,   0.00, 1011.6,   78.8, -999.0
10-11-2022, 00:38:42,    206,    0.8,    7.9,   0.00,   0.00, 1011.6,   78.8, -999.0
10-11-2022, 00:38:52,    206,    0.1,    7.7,   0.00,   0.00, 1011.6,   78.6, -999.0
10-11-2022, 00:39:02,    191,    0.4,    7.8,   0.00,   0.00, 1011.7,   78.7, -999.0
10-11-2022, 00:39:13,    207,    0.7,    7.8,   0.00,   0.00, 1011.6,   78.7, -999.0
10-11-2022, 00:39:22,    186,    2.3,    7.9,   0.00,   0.00, 1011.7,   78.8, -999.0
10-11-2022, 00:39:32,    170,    1.4,    7.9,   0.00,   0.00, 1011.6,   78.8, -999.0
10-11-2022, 00:39:41,    181,    1.6,    7.9,   0.00,   0.00, 1011.6,   78.8, -999.0
10-11-2022, 00:39:51,    187,    1.2,    7.8,   0.00,   0.00, 1011.7,   78.8, -999.0
10-11-2022, 00:40:02,    188,    0.5,    7.9,   0.00,   0.00, 1011.7,   78.8, -999.0
10-11-2022, 00:40:11,    187,    0.9,    7.8,   0.00,   0.00, 1011.6,   78.8, -999.0
10-11-2022, 00:40:21,    184,    0.4,    7.9,   0.00,   0.00, 1011.6,   78.7, -999.0
10-11-2022, 00:40:32,    198,    1.7,    7.8,   0.00,   0.00, 1011.6,   78.8, -999.0
10-11-2022, 00:40:41,    221,    2.1,    7.9,   0.00,   0.00, 1011.6,   78.8, -999.0
10-11-2022, 00:40:51,    212,    0.9,    7.9,   0.00,   0.00, 1011.6,   78.9, -999.0
10-11-2022, 00:41:01,    211,    0.4,    7.8,   0.00,   0.00, 1011.6,   78.8, -999.0
10-11-2022, 00:41:11,    211,    0.1,    7.8,   0.00,   0.00, 1011.5,   78.5, -999.0
10-11-2022, 00:41:21,    210,    0.3,    7.9,   0.00,   0.00, 1011.6,   78.6, -999.0
10-11-2022, 00:41:31,    211,    1.5,    7.8,   0.00,   0.00, 1011.6,   78.8, -999.0
10-11-2022, 00:41:41,    168,    1.3,    7.8,   0.00,   0.00, 1011.6,   78.8, -999.0
10-11-2022, 00:41:51,    169,    0.4,    7.9,   0.00,   0.00, 1011.6,   78.8, -999.0
10-11-2022, 00:42:01,    186,    0.2,    7.8,   0.00,   0.00, 1011.5,   78.6, -999.0
10-11-2022, 00:42:11,    180,    0.5,    7.9,   0.00,   0.00, 1011.6,   78.6, -999.0
10-11-2022, 00:42:21,    158,    0.9,    7.9,   0.00,   0.00, 1011.6,   78.7, -999.0
10-11-2022, 00:42:31,    194,    1.5,    7.8,   0.00,   0.00, 1011.6,   78.7, -999.0
10-11-2022, 00:42:41,    210,    1.4,    7.8,   0.00,   0.00, 1011.6,   78.8, -999.0
10-11-2022, 00:42:51,    195,    2.1,    7.8,   0.00,   0.00, 1011.6,   78.8, -999.0
10-11-2022, 00:43:01,    190,    1.5,    7.8,   0.00,   0.00, 1011.6,   78.8, -999.0
10-11-2022, 00:43:11,    188,    0.4,    7.8,   0.00,   0.00, 1011.6,   78.7, -999.0
10-11-2022, 00:43:21,    191,    0.6,    7.8,   0.00,   0.00, 1011.6,   78.8, -999.0
10-11-2022, 00:43:31,    191,    0.4,    7.8,   0.00,   0.00, 1011.5,   78.6, -999.0
10-11-2022, 00:43:41,    192,    0.4,    7.8,   0.00,   0.00, 1011.6,   78.7, -999.0
10-11-2022, 00:43:51,    193,    0.7,    7.9,   0.00,   0.00, 1011.6,   78.7, -999.0
10-11-2022, 00:44:01,    193,    0.2,    7.8,   0.00,   0.00, 1011.5,   78.6, -999.0
10-11-2022, 00:44:10,    191,    0.8,    7.8,   0.00,   0.00, 1011.7,   78.8, -999.0
10-11-2022, 00:44:21,    188,    0.9,    7.8,   0.00,   0.00, 1011.7,   78.8, -999.0
10-11-2022, 00:44:31,    200,    2.5,    7.8,   0.00,   0.00, 1011.6,   78.9, -999.0
10-11-2022, 00:44:40,    170,    2.1,    7.9,   0.00,   0.00, 1011.7,   78.9, -999.0
10-11-2022, 00:44:50,    189,    0.5,    7.8,   0.00,   0.00, 1011.6,   78.8, -999.0
10-11-2022, 00:45:01,    192,    0.7,    7.8,   0.00,   0.00, 1011.6,   78.7, -999.0
10-11-2022, 00:45:10,    192,    0.0,    7.8,   0.00,   0.00, 1011.5,   78.6, -999.0
10-11-2022, 00:45:20,    171,    0.8,    7.8,   0.00,   0.00, 1011.6,   78.8, -999.0
10-11-2022, 00:45:30,    180,    1.7,    7.8,   0.00,   0.00, 1011.6,   78.9, -999.0
10-11-2022, 00:45:40,    176,    2.3,    7.9,   0.00,   0.00, 1011.7,   78.9, -999.0
10-11-2022, 00:45:50,    183,    1.7,    7.9,   0.00,   0.00, 1011.7,   78.9, -999.0
10-11-2022, 00:46:00,    184,    0.5,    7.8,   0.00,   0.00, 1011.6,   78.8, -999.0
10-11-2022, 00:46:10,    183,    0.1,    7.7,   0.00,   0.00, 1011.6,   78.7, -999.0
10-11-2022, 00:46:20,    185,    0.0,    7.8,   0.00,   0.00, 1011.6,   78.5, -999.0
10-11-2022, 00:46:30,    182,    0.6,    7.8,   0.00,   0.00, 1011.7,   78.9, -999.0
10-11-2022, 00:46:40,    184,    0.1,    7.7,   0.00,   0.00, 1011.6,   78.7, -999.0